Погода в Шкодере

Албания     42°04′18″N   19°30′47″E
темп.,
°C
ветер,
м/с
пор.,
м/с
влажн.,
%
обл.,
%
осадки,
мм/ч
давл.,
гПа
погр.,
м
5 декабря, вс
вс501:00+6ссв11865 0.0 101211
04:00+7всв118657 0.0 101211
07:00+7всв1185100 0.0 101213
10:00+10в1276100 0.0 1011111
13:00+9всв2279100 0.5 100858
16:00+9ююв1694100 10.4 1005323
19:00+11ю51194100 39.9 1006668
22:00+10юв3996100 19.2 1003563
6 декабря, пн
пн601:00+13ю112085100 32.4 10021385
04:00+13ююз71384100 9.7 1002653
07:00+12зюз51082100 15.4 1003471
10:00+10в2496100 6.6 1004209
13:00+8св3394100 29.0 1003219
16:00+7всв4694100 17.0 1004257
19:00+7св2387100 17.6 100387
22:00+7св3585100 0.2 1004242
7 декабря, вт
вт701:00+6всв3587100 0.2 1004206
04:00+6св3686100 0.0 1004208
07:00+5св3582100 0.0 1005127
10:00+7св3670100 0.0 1006493
13:00+8св3464100 0.0 1005562
16:00+6св337495 0.0 100660
19:00+5св227895 0.0 100827
22:00+4ссв237643 0.0 100950
8 декабря, ср
ср801:00+2ссв22744 0.0 101037
04:00+2св22740 0.0 101130
07:00+1св22730 0.0 101317
10:00+5св22550 0.0 1013320
13:00+8ююв015187 0.0 1013401
16:00+6ссв11655 0.0 101311
19:00+6св227082 0.0 101418
22:00+7ссв2269100 0.0 101424
9 декабря, чт
чт901:00+8св1166100 0.0 101316
04:00+9всв2163100 0.0 101119
07:00+9св116994 0.0 101013
10:00+12вюв1171100 0.0 100851
13:00+13в137829 0.3 1006138
16:00+14ю6137198 2.0 1004424
19:00+13ю101881100 4.7 10031304
22:00+12ююз71479100 10.7 1005842